| time (UTC) | temp F | wind direction | speed MPH | gust MPH | rain 1hr in | rain 24hr in | rain mn in | humidity % | barometer mb |
| 20260901230100 | 71 | 138 | 0.0 | 0.0 | 0.00 | 0.54 | 0.00 | 96 | 1015.7 |
| 20260901224606 | 72 | 138 | 1.0 | 2.0 | 0.00 | 0.54 | 0.00 | 96 | 1015.7 |
| 20260901223159 | 74 | 285 | 0.0 | 3.0 | 0.00 | 0.54 | 0.00 | 95 | 1016.2 |
| 20260901220047 | 77 | 40 | 0.0 | 0.0 | 0.04 | 0.55 | 0.33 | 94 | 1014.9 |
| 20260901214557 | 78 | 9 | 0.0 | 1.0 | 0.00 | 0.51 | 0.28 | 92 | 1014.6 |
| 20260901213047 | 79 | 20 | 0.0 | 0.0 | 0.00 | 0.51 | 0.28 | 91 | 1015.1 |
| 20260901211545 | 79 | 20 | 0.0 | 0.0 | 0.00 | 0.51 | 0.28 | 91 | 1014.9 |
| 20260901210056 | 79 | 20 | 0.0 | 0.0 | 0.00 | 0.51 | 0.28 | 89 | 1015.2 |
| 20260901204543 | 80 | 19 | 0.0 | 1.0 | 0.00 | 0.51 | 0.28 | 89 | 1014.9 |
| 20260901203044 | 79 | 356 | 0.0 | 1.0 | 0.00 | 0.51 | 0.28 | 90 | 1015.1 |
| 20260901201538 | 78 | 30 | 0.0 | 2.0 | 0.00 | 0.51 | 0.28 | 90 | 1015.2 |
| 20260901200038 | 78 | 314 | 0.0 | 2.0 | 0.00 | 0.51 | 0.28 | 91 | 1015.3 |
| 20260901194545 | 78 | 35 | 0.0 | 1.0 | 0.00 | 0.55 | 0.28 | 91 | 1015.3 |
| 20260901193036 | 79 | 354 | 0.0 | 2.0 | 0.00 | 0.55 | 0.28 | 90 | 1015.4 |
| 20260901191541 | 78 | 321 | 0.0 | 3.0 | 0.00 | 0.55 | 0.28 | 90 | 1015.3 |
| 20260901190031 | 77 | 308 | 1.0 | 4.0 | 0.00 | 0.55 | 0.28 | 92 | 1015.3 |
| 20260901184529 | 76 | 293 | 0.0 | 4.0 | 0.00 | 0.56 | 0.28 | 94 | 1015.5 |
| 20260901183036 | 76 | 356 | 0.0 | 4.0 | 0.00 | 0.56 | 0.28 | 97 | 1015.6 |
| 20260901181529 | 75 | 342 | 0.0 | 1.0 | 0.00 | 0.56 | 0.28 | 99 | 1015.4 |
| 20260901180021 | 75 | 108 | 0.0 | 1.0 | 0.00 | 0.56 | 0.28 | 100 | 1015.5 |
| 20260901174518 | 74 | 189 | 0.0 | 2.0 | 0.00 | 0.56 | 0.28 | 100 | 1015.3 |
| 20260901173020 | 73 | 56 | 0.0 | 1.0 | 0.00 | 0.56 | 0.28 | 100 | 1015.1 |
| 20260901171511 | 72 | 169 | 0.0 | 0.0 | 0.00 | 0.56 | 0.28 | 100 | 1015.3 |
| 20260901170009 | 71 | 114 | 0.0 | 0.0 | 0.00 | 0.56 | 0.28 | 100 | 1015.6 |
| 20260901164506 | 71 | 326 | 0.0 | 4.0 | 0.00 | 0.56 | 0.28 | 100 | 1015.9 |
| 20260901163005 | 71 | 340 | 1.0 | 3.0 | 0.00 | 0.56 | 0.28 | 100 | 1016.8 |
| 20260901161506 | 71 | 8 | 0.0 | 0.0 | 0.00 | 0.56 | 0.28 | 100 | 1016.2 |
| 20260901160001 | 71 | 8 | 0.0 | 0.0 | 0.02 | 0.56 | 0.28 | 100 | 1016.1 |
| 20260901154618 | 70 | 8 | 0.0 | 0.0 | 0.08 | 0.56 | 0.28 | 100 | 1016.2 |
| 20260901154501 | 70 | 8 | 0.0 | 0.0 | 0.09 | 0.56 | 0.28 | 100 | 1016.2 |
| 20260901153157 | 70 | 8 | 0.0 | 0.0 | 0.10 | 0.56 | 0.28 | 100 | 1016.7 |
| 20260901151558 | 69 | 8 | 0.0 | 0.0 | 0.11 | 0.56 | 0.28 | 100 | 1016.9 |
| 20260901150107 | 69 | 8 | 0.0 | 1.0 | 0.13 | 0.55 | 0.27 | 100 | 1017.2 |
| 20260901144555 | 69 | 32 | 0.0 | 1.0 | 0.07 | 0.49 | 0.21 | 100 | 1017.6 |
| 20260901143055 | 69 | 32 | 0.0 | 1.0 | 0.05 | 0.46 | 0.18 | 100 | 1017.3 |
| 20260901141601 | 69 | 345 | 0.0 | 3.0 | 0.05 | 0.46 | 0.18 | 100 | 1017.4 |
| 20260901140058 | 70 | 36 | 0.0 | 0.0 | 0.01 | 0.42 | 0.14 | 100 | 1017.2 |
| 20260901134553 | 69 | 35 | 0.0 | 0.0 | 0.01 | 0.42 | 0.14 | 100 | 1016.5 |
| 20260901133054 | 69 | 35 | 0.0 | 2.0 | 0.00 | 0.41 | 0.13 | 100 | 1016.4 |
| 20260901131553 | 69 | 89 | 0.0 | 2.0 | 0.00 | 0.41 | 0.13 | 100 | 1016.9 |
| 20260901130050 | 69 | 27 | 0.0 | 0.0 | 0.00 | 0.41 | 0.13 | 100 | 1016.9 |
| 20260901124550 | 69 | 27 | 0.0 | 1.0 | 0.00 | 0.41 | 0.13 | 100 | 1016.8 |
| 20260901123052 | 69 | 25 | 0.0 | 2.0 | 0.00 | 0.41 | 0.13 | 100 | 1017.0 |
| 20260901121547 | 69 | 102 | 0.0 | 0.0 | 0.00 | 0.41 | 0.13 | 100 | 1017.0 |
| 20260901120100 | 69 | 112 | 0.0 | 0.0 | 0.01 | 0.41 | 0.13 | 100 | 1016.8 |
| 20260901114550 | 68 | 112 | 0.0 | 0.0 | 0.06 | 0.41 | 0.13 | 100 | 1016.4 |
| 20260901113053 | 68 | 112 | 0.0 | 0.0 | 0.11 | 0.41 | 0.13 | 100 | 1016.7 |
| 20260901111542 | 68 | 112 | 0.0 | 0.0 | 0.12 | 0.41 | 0.13 | 100 | 1016.8 |
| 20260901110049 | 68 | 112 | 0.0 | 0.0 | 0.11 | 0.40 | 0.12 | 100 | 1016.9 |
| 20260901104540 | 67 | 113 | 0.0 | 2.0 | 0.05 | 0.34 | 0.06 | 100 | 1017.1 |
| 20260901103049 | 67 | 342 | 0.0 | 1.0 | 0.00 | 0.28 | 0.01 | 100 | 1017.0 |
| 20260901101538 | 67 | 10 | 0.0 | 1.0 | 0.00 | 0.28 | 0.01 | 100 | 1016.9 |
| 20260901100036 | 67 | 342 | 0.0 | 1.0 | 0.00 | 0.28 | 0.01 | 100 | 1016.8 |
| 20260901094535 | 67 | 121 | 0.0 | 0.0 | 0.00 | 0.28 | 0.01 | 100 | 1016.6 |
| 20260901093036 | 67 | 20 | 0.0 | 2.0 | 0.00 | 0.28 | 0.01 | 100 | 1016.8 |
| 20260901091534 | 66 | 35 | 0.0 | 0.0 | 0.00 | 0.28 | 0.01 | 100 | 1016.9 |
| 20260901090032 | 66 | 35 | 0.0 | 0.0 | 0.00 | 0.28 | 0.01 | 100 | 1016.8 |
| 20260901084531 | 66 | 35 | 0.0 | 2.0 | 0.00 | 0.28 | 0.01 | 100 | 1016.9 |
| 20260901083030 | 66 | 288 | 0.0 | 1.0 | 0.00 | 0.28 | 0.01 | 100 | 1017.1 |
| 20260901081528 | 66 | 307 | 0.0 | 1.0 | 0.00 | 0.28 | 0.01 | 100 | 1017.3 |
| 20260901080036 | 66 | 8 | 0.0 | 1.0 | 0.00 | 0.28 | 0.01 | 100 | 1017.3 |
| 20260901074527 | 66 | 42 | 0.0 | 0.0 | 0.01 | 0.28 | 0.01 | 100 | 1017.4 |
| 20260901073027 | 66 | 42 | 0.0 | 1.0 | 0.01 | 0.28 | 0.01 | 100 | 1017.4 |
| 20260901071524 | 66 | 9 | 0.0 | 0.0 | 0.01 | 0.28 | 0.01 | 100 | 1017.3 |
| 20260901070022 | 67 | 9 | 0.0 | 5.0 | 0.01 | 0.28 | 0.01 | 100 | 1017.7 |
| 20260901064525 | 67 | 57 | 0.0 | 0.0 | 0.00 | 0.28 | 0.00 | 100 | 1017.7 |
| 20260901063041 | 67 | 57 | 0.0 | 0.0 | 0.00 | 0.28 | 0.00 | 100 | 1017.7 |
| 20260901061519 | 67 | 57 | 0.0 | 1.0 | 0.00 | 0.28 | 0.00 | 100 | 1017.8 |
| 20260901060016 | 66 | 218 | 0.0 | 0.0 | 0.00 | 0.28 | 0.00 | 100 | 1017.9 |
| 20260901054515 | 66 | 200 | 0.0 | 0.0 | 0.00 | 0.28 | 0.00 | 100 | 1018.0 |
| 20260901053013 | 66 | 200 | 0.0 | 0.0 | 0.00 | 0.28 | 0.00 | 100 | 1018.1 |
| 20260901051511 | 66 | 199 | 0.0 | 0.0 | 0.00 | 0.28 | 0.00 | 100 | 1018.2 |
| 20260901050010 | 66 | 199 | 0.0 | 1.0 | 0.00 | 0.28 | 0.00 | 100 | 1018.3 |
| 20260901044509 | 66 | 196 | 0.0 | 1.0 | 0.00 | 0.28 | 0.00 | 100 | 1018.4 |
| 20260901043008 | 66 | 197 | 0.0 | 0.0 | 0.05 | 0.28 | 0.00 | 99 | 1018.5 |
| 20260901041505 | 66 | 198 | 0.0 | 1.0 | 0.12 | 0.28 | 0.00 | 99 | 1018.5 |
| 20260901040005 | 66 | 198 | 0.0 | 0.0 | 0.13 | 0.28 | 0.00 | 99 | 1018.6 |
| 20260901034503 | 66 | 198 | 0.0 | 0.0 | 0.13 | 0.28 | 0.28 | 99 | 1018.8 |
| 20260901033101 | 66 | 198 | 0.0 | 1.0 | 0.11 | 0.24 | 0.23 | 99 | 1018.7 |
| 20260901031559 | 66 | 213 | 0.0 | 0.0 | 0.05 | 0.17 | 0.16 | 99 | 1018.7 |
| 20260901030059 | 66 | 213 | 0.0 | 1.0 | 0.04 | 0.16 | 0.15 | 99 | 1018.7 |
| 20260901024557 | 66 | 221 | 0.0 | 0.0 | 0.04 | 0.16 | 0.15 | 99 | 1019.0 |
| 20260901023056 | 66 | 226 | 0.0 | 0.0 | 0.01 | 0.13 | 0.12 | 99 | 1019.2 |
| 20260901021557 | 66 | 243 | 0.0 | 0.0 | 0.00 | 0.12 | 0.11 | 99 | 1019.3 |
| 20260901020057 | 66 | 243 | 0.0 | 0.0 | 0.00 | 0.12 | 0.11 | 99 | 1019.3 |
| 20260901014555 | 66 | 243 | 0.0 | 0.0 | 0.00 | 0.12 | 0.11 | 99 | 1019.3 |
| 20260901013110 | 66 | 243 | 0.0 | 0.0 | 0.00 | 0.12 | 0.11 | 99 | 1019.4 |
| 20260901011554 | 66 | 243 | 0.0 | 1.0 | 0.00 | 0.12 | 0.11 | 99 | 1019.3 |
| 20260901010057 | 66 | 309 | 0.0 | 0.0 | 0.00 | 0.12 | 0.11 | 98 | 1019.4 |
| 20260901004553 | 67 | 309 | 0.0 | 0.0 | 0.03 | 0.12 | 0.11 | 98 | 1019.2 |
| 20260901003052 | 67 | 311 | 0.0 | 0.0 | 0.05 | 0.12 | 0.11 | 98 | 1019.1 |
| 20260901001553 | 67 | 311 | 0.0 | 0.0 | 0.05 | 0.12 | 0.11 | 98 | 1019.0 |
| 20260901000052 | 67 | 311 | 0.0 | 0.0 | 0.05 | 0.12 | 0.11 | 98 | 1018.9 |
| 20260831234553 | 67 | 311 | 0.0 | 0.0 | 0.02 | 0.09 | 0.08 | 97 | 1019.1 |
| 20260831233053 | 68 | 311 | 0.0 | 0.0 | 0.00 | 0.07 | 0.06 | 97 | 1019.2 |
| 20260831231549 | 68 | 311 | 0.0 | 0.0 | 0.00 | 0.07 | 0.06 | 97 | 1019.4 |